• Em Portugal
  • Lista de países
  • Para 7 dias
  • Temperatura da água
  • Mapas de satélite
  • Mapa do tempo
  • Widgets de tempo
  • user-avatar
    Iniciar Sessão

    Previsão horária em Osintorf

    Hoje, 23 Setembro, Domingo

    Tempo Temperatura Precipitação Vento Pressão Humidade
    00:00 +9°C° 0.2 mm 3 m/s 743 mmHg 93%
    01:00 +9°C° 0.2 mm 3 m/s 743 mmHg 93%
    02:00 +9°C° 0 mm 3 m/s 743 mmHg 94%
    03:00 +8°C° 0 mm 3 m/s 743 mmHg 95%
    04:00 +8°C° 0 mm 3 m/s 743 mmHg 95%
    05:00 +7°C° 0 mm 3 m/s 743 mmHg 96%
    06:00 +7°C° 0 mm 4 m/s 743 mmHg 93%
    07:00 +7°C° 0 mm 4 m/s 743 mmHg 90%
    08:00 +8°C° 0 mm 4 m/s 742 mmHg 87%
    09:00 +10°C° 0 mm 5 m/s 742 mmHg 80%
    10:00 +12°C° 0 mm 5 m/s 742 mmHg 73%
    11:00 +13°C° 0 mm 6 m/s 742 mmHg 65%
    12:00 +14°C° 0.1 mm 6 m/s 742 mmHg 63%
    13:00 +14°C° 0.1 mm 6 m/s 742 mmHg 61%
    14:00 +14°C° 0.1 mm 6 m/s 742 mmHg 59%
    15:00 +14°C° 0.1 mm 5 m/s 742 mmHg 62%
    16:00 +13°C° 0.1 mm 5 m/s 742 mmHg 66%
    17:00 +12°C° 0.1 mm 4 m/s 742 mmHg 70%
    18:00 +11°C° 0 mm 4 m/s 742 mmHg 74%
    19:00 +10°C° 0 mm 4 m/s 742 mmHg 78%
    20:00 +8°C° 0 mm 4 m/s 742 mmHg 81%
    21:00 +8°C° 0 mm 4 m/s 742 mmHg 84%
    22:00 +8°C° 0 mm 3 m/s 741 mmHg 86%
    23:00 +8°C° 0 mm 3 m/s 741 mmHg 89%

    Amanhã, 24 Setembro, Segunda-feira

    Tempo Temperatura Precipitação Vento Pressão Humidade
    00:00 +8°C° 0 mm 3 m/s 741 mmHg 90%
    01:00 +8°C° 0 mm 3 m/s 741 mmHg 92%
    02:00 +8°C° 0 mm 3 m/s 740 mmHg 94%
    03:00 +8°C° 0.6 mm 3 m/s 740 mmHg 95%
    04:00 +8°C° 0.6 mm 3 m/s 739 mmHg 95%
    05:00 +8°C° 0.6 mm 3 m/s 739 mmHg 96%
    06:00 +8°C° 1.5 mm 3 m/s 738 mmHg 95%
    07:00 +9°C° 1.5 mm 3 m/s 737 mmHg 95%
    08:00 +8°C° 1.5 mm 4 m/s 737 mmHg 95%
    09:00 +8°C° 2.1 mm 4 m/s 736 mmHg 94%
    10:00 +8°C° 2.1 mm 5 m/s 735 mmHg 94%
    11:00 +8°C° 2.1 mm 5 m/s 734 mmHg 94%
    12:00 +8°C° 3.2 mm 5 m/s 733 mmHg 94%
    13:00 +8°C° 3.2 mm 4 m/s 732 mmHg 95%
    14:00 +8°C° 3.2 mm 4 m/s 731 mmHg 96%
    15:00 +7°C° 3.5 mm 5 m/s 730 mmHg 95%
    16:00 +7°C° 3.5 mm 6 m/s 730 mmHg 95%
    17:00 +6°C° 3.5 mm 7 m/s 730 mmHg 94%
    18:00 +6°C° 2.3 mm 8 m/s 730 mmHg 92%
    19:00 +6°C° 2.3 mm 9 m/s 730 mmHg 91%
    20:00 +5°C° 2.3 mm 10 m/s 731 mmHg 89%
    21:00 +5°C° 0.8 mm 9 m/s 732 mmHg 89%
    22:00 +6°C° 0.8 mm 9 m/s 732 mmHg 89%
    23:00 +6°C° 0.8 mm 9 m/s 733 mmHg 89%

    Depois de amanhã, 25 Setembro, Terça-feira

    Tempo Temperatura Precipitação Vento Pressão Humidade
    00:00 +5°C° 0.3 mm 9 m/s 734 mmHg 88%
    01:00 +5°C° 0.3 mm 9 m/s 735 mmHg 87%
    02:00 +5°C° 0.3 mm 8 m/s 736 mmHg 86%
    03:00 +4°C° 0 mm 8 m/s 737 mmHg 86%
    04:00 +4°C° 0 mm 8 m/s 738 mmHg 87%
    05:00 +2°C° 0 mm 8 m/s 739 mmHg 87%
    06:00 +2°C° 0 mm 8 m/s 739 mmHg 85%
    07:00 +2°C° 0 mm 8 m/s 740 mmHg 84%
    08:00 +2°C° 0 mm 8 m/s 741 mmHg 82%
    09:00 +4°C° 0 mm 8 m/s 742 mmHg 79%
    10:00 +4°C° 0 mm 8 m/s 742 mmHg 76%
    11:00 +5°C° 0 mm 8 m/s 743 mmHg 72%
    12:00 +5°C° 0 mm 7 m/s 744 mmHg 70%
    13:00 +6°C° 0 mm 7 m/s 744 mmHg 67%
    14:00 +6°C° 0 mm 7 m/s 745 mmHg 65%
    15:00 +6°C° 0.1 mm 7 m/s 745 mmHg 67%
    16:00 +5°C° 0.1 mm 6 m/s 746 mmHg 68%
    17:00 +5°C° 0.1 mm 6 m/s 746 mmHg 70%
    18:00 +5°C° 0 mm 5 m/s 747 mmHg 71%
    19:00 +3°C° 0 mm 5 m/s 748 mmHg 72%
    20:00 +2°C° 0 mm 5 m/s 748 mmHg 74%
    21:00 +2°C° 0 mm 5 m/s 749 mmHg 73%
    22:00 +2°C° 0 mm 5 m/s 750 mmHg 73%
    23:00 +1°C° 0 mm 5 m/s 750 mmHg 73%

    26 Setembro, Quarta-feira

    Tempo Temperatura Precipitação Vento Pressão Humidade
    00:00 +1°C° 0 mm 4 m/s 751 mmHg 73%
    01:00 +1°C° 0 mm 4 m/s 751 mmHg 74%
    02:00 +1°C° 0 mm 4 m/s 752 mmHg 74%
    03:00 +1°C° 0 mm 4 m/s 752 mmHg 78%
    04:00 0°C° 0 mm 4 m/s 752 mmHg 81%
    05:00 0°C° 0 mm 4 m/s 753 mmHg 85%
    06:00 +1°C° 0 mm 4 m/s 753 mmHg 83%
    07:00 +3°C° 0 mm 4 m/s 753 mmHg 81%
    08:00 +3°C° 0 mm 4 m/s 754 mmHg 79%
    09:00 +5°C° 0 mm 5 m/s 754 mmHg 72%
    10:00 +7°C° 0 mm 5 m/s 754 mmHg 66%
    11:00 +8°C° 0 mm 5 m/s 754 mmHg 59%
    12:00 +9°C° 0 mm 5 m/s 753 mmHg 58%
    13:00 +10°C° 0 mm 6 m/s 753 mmHg 57%
    14:00 +10°C° 0 mm 6 m/s 752 mmHg 56%
    15:00 +9°C° 0 mm 6 m/s 752 mmHg 61%
    16:00 +9°C° 0 mm 5 m/s 751 mmHg 66%
    17:00 +8°C° 0 mm 5 m/s 751 mmHg 71%
    18:00 +8°C° 0.1 mm 5 m/s 750 mmHg 73%
    19:00 +7°C° 0.1 mm 6 m/s 750 mmHg 75%
    20:00 +6°C° 0.1 mm 7 m/s 749 mmHg 78%
    21:00 +5°C° 0.4 mm 7 m/s 748 mmHg 80%
    22:00 +5°C° 0.4 mm 8 m/s 747 mmHg 82%
    23:00 +5°C° 0.4 mm 8 m/s 746 mmHg 84%

    27 Setembro, Quinta-feira

    Tempo Temperatura Precipitação Vento Pressão Humidade
    00:00 +5°C° 1.1 mm 9 m/s 745 mmHg 85%
    01:00 +5°C° 1.1 mm 9 m/s 744 mmHg 87%
    02:00 +5°C° 1.1 mm 9 m/s 743 mmHg 88%
    03:00 +5°C° 0.9 mm 9 m/s 743 mmHg 89%
    04:00 +5°C° 0.9 mm 9 m/s 742 mmHg 89%
    05:00 +6°C° 0.9 mm 9 m/s 741 mmHg 90%
    06:00 +6°C° 0.5 mm 8 m/s 741 mmHg 90%
    07:00 +7°C° 0.5 mm 8 m/s 741 mmHg 90%
    08:00 +7°C° 0.5 mm 8 m/s 741 mmHg 91%
    09:00 +9°C° 0.4 mm 7 m/s 741 mmHg 91%
    10:00 +9°C° 0.4 mm 6 m/s 741 mmHg 91%
    11:00 +10°C° 0.4 mm 6 m/s 741 mmHg 91%
    12:00 +12°C° 0.1 mm 5 m/s 742 mmHg 89%
    13:00 +12°C° 0.1 mm 5 m/s 742 mmHg 87%
    14:00 +13°C° 0.1 mm 5 m/s 742 mmHg 85%
    15:00 +13°C° 0.1 mm 4 m/s 742 mmHg 85%
    16:00 +12°C° 0.1 mm 4 m/s 742 mmHg 86%
    17:00 +12°C° 0.1 mm 4 m/s 742 mmHg 87%
    18:00 +12°C° 0.1 mm 4 m/s 742 mmHg 88%
    19:00 +12°C° 0.1 mm 4 m/s 742 mmHg 90%
    20:00 +12°C° 0.1 mm 4 m/s 742 mmHg 91%
    21:00 +11°C° 0.2 mm 4 m/s 742 mmHg 91%
    22:00 +10°C° 0.2 mm 5 m/s 742 mmHg 91%
    23:00 +10°C° 0.2 mm 6 m/s 742 mmHg 91%

    28 Setembro, Sexta-feira

    Tempo Temperatura Precipitação Vento Pressão Humidade
    00:00 +10°C° 0 mm 5 m/s 742 mmHg 92%
    01:00 +10°C° 0 mm 5 m/s 742 mmHg 94%
    02:00 +10°C° 0 mm 5 m/s 742 mmHg 95%
    03:00 +10°C° 0 mm 5 m/s 741 mmHg 94%
    04:00 +10°C° 0 mm 6 m/s 741 mmHg 93%
    05:00 +11°C° 0 mm 7 m/s 740 mmHg 92%
    06:00 +11°C° 0.1 mm 8 m/s 739 mmHg 90%
    07:00 +12°C° 0.1 mm 8 m/s 739 mmHg 89%
    08:00 +12°C° 0.1 mm 9 m/s 738 mmHg 87%
    09:00 +13°C° 0.3 mm 9 m/s 738 mmHg 86%
    10:00 +13°C° 0.3 mm 9 m/s 738 mmHg 85%
    11:00 +14°C° 0.3 mm 10 m/s 738 mmHg 83%
    12:00 +13°C° 0.7 mm 9 m/s 739 mmHg 82%
    13:00 +12°C° 0.7 mm 8 m/s 740 mmHg 81%
    14:00 +12°C° 0.7 mm 8 m/s 740 mmHg 80%
    15:00 +11°C° 0 mm 6 m/s 741 mmHg 80%
    16:00 +10°C° 0 mm 5 m/s 742 mmHg 80%
    17:00 +10°C° 0 mm 3 m/s 743 mmHg 81%
    18:00 +9°C° 0 mm 3 m/s 743 mmHg 84%
    19:00 +9°C° 0 mm 3 m/s 744 mmHg 87%
    20:00 +8°C° 0 mm 3 m/s 745 mmHg 90%
    21:00 +7°C° 0 mm 3 m/s 745 mmHg 90%
    22:00 +7°C° 0 mm 3 m/s 746 mmHg 90%
    23:00 +6°C° 0 mm 4 m/s 746 mmHg 91%
    Mostrar mais